Printer-friendly version

IAU Minor Planet Center

Minor Planet Center

(51) Nemausa

Orbital Elements

The following orbital elements are taken from MPC 31001:
   (51) Nemausa
Epoch 2000 Feb. 26.0 TT = JDT 2451600.5                 Goffin
M 358.98478              (2000.0)            P               Q
n   0.27087064     Peri.    3.30470     -0.99990740     -0.00739134
a   2.3657096      Node   176.21481     +0.00452170     -0.97239100
e   0.0667038      Incl.    9.96746     +0.01283566     -0.23324047
P   3.64           H    7.35          G   0.08           U   0
From 3595 observations at 87 oppositions, 1858-1997, mean residual 0".52.
An explanation of the orbital elements is available.

These orbital elements are also available in forms suitable for loading into a number of popular planetarium-type software programs.


Ephemeris

The following ephemeris is at intervals of five days. A daily ephemeris covering the same time interval is also available.

Date    TT    R. A. (2000) Decl.     Delta      r     Elong.  Phase     V
 
2000 01 07    12 29.76   -06 09.6    1.872    2.214    96.7    26.2    11.7
2000 01 12    12 34.73   -06 26.5    1.810    2.213   100.6    25.9    11.7
2000 01 17    12 39.23   -06 39.1    1.749    2.212   104.5    25.5    11.6
2000 01 22    12 43.21   -06 46.8    1.690    2.211   108.7    24.9    11.5
2000 01 27    12 46.63   -06 49.5    1.632    2.210   113.0    24.2    11.4
2000 02 01    12 49.44   -06 46.7    1.575    2.210   117.4    23.3    11.3
2000 02 06    12 51.59   -06 38.0    1.522    2.209   122.1    22.2    11.2
2000 02 11    12 53.04   -06 23.3    1.470    2.209   126.9    20.9    11.0
2000 02 16    12 53.77   -06 02.1    1.423    2.208   131.9    19.4    10.9
2000 02 21    12 53.76   -05 34.7    1.378    2.208   137.1    17.7    10.8
2000 02 26    12 53.01   -05 00.8    1.338    2.208   142.5    15.8    10.6
2000 03 02    12 51.54   -04 20.9    1.303    2.208   148.2    13.7    10.5
2000 03 07    12 49.38   -03 35.4    1.273    2.208   153.9    11.4    10.4
2000 03 12    12 46.61   -02 45.1    1.249    2.208   159.8     8.9    10.2
2000 03 17    12 43.33   -01 51.0    1.230    2.208   165.8     6.3    10.1
2000 03 22    12 39.67   -00 54.6    1.218    2.209   171.6     3.8     9.9
2000 03 27    12 35.78   +00 02.7    1.213    2.209   176.1     1.8     9.7
2000 04 01    12 31.80   +00 59.4    1.214    2.210   173.8     2.8     9.8
2000 04 06    12 27.91   +01 53.8    1.221    2.211   168.3     5.3    10.0
2000 04 11    12 24.25   +02 44.6    1.235    2.211   162.4     7.9    10.1
2000 04 16    12 20.99   +03 30.4    1.255    2.212   156.5    10.4    10.3
2000 04 21    12 18.22   +04 10.3    1.281    2.213   150.8    12.8    10.4
2000 04 26    12 16.03   +04 43.9    1.312    2.214   145.3    15.0    10.6
2000 05 01    12 14.49   +05 10.7    1.347    2.215   139.9    17.0    10.7
2000 05 06    12 13.64   +05 30.6    1.387    2.217   134.8    18.8    10.8
2000 05 11    12 13.49   +05 43.7    1.431    2.218   129.9    20.5    11.0
2000 05 16    12 14.04   +05 50.3    1.477    2.220   125.2    21.9    11.1
2000 05 21    12 15.27   +05 50.7    1.527    2.221   120.7    23.1    11.2
2000 05 26    12 17.13   +05 45.5    1.579    2.223   116.4    24.1    11.3
2000 05 31    12 19.61   +05 35.0    1.633    2.224   112.2    25.0    11.4
2000 06 05    12 22.66   +05 19.6    1.689    2.226   108.3    25.6    11.5
2000 06 10    12 26.25   +04 59.9    1.746    2.228   104.5    26.2    11.6
2000 06 15    12 30.34   +04 36.2    1.803    2.230   100.8    26.6    11.7
2000 06 20    12 34.87   +04 08.9    1.862    2.232    97.3    26.8    11.8
2000 06 25    12 39.82   +03 38.5    1.921    2.234    93.9    27.0    11.8

Back to Bright Minor Planets

Astronomical Headlines Index


Valid HTML 4.01!